Location: Fenton Hill Observtory
(35.8809°N, 106.6741°W)
Time: 17:43:29
(UTC-07:00)

N. Korean satellite - Visible Passes

Search period start: 15 December 2018 00:00
Search period end: 25 December 2018 00:00
Orbit: 456 x 511 km, 97.2° (Epoch: 15 December)

Date Brightness Start Highest point End Pass type
(mag) Time Alt. Az. Time Alt. Az. Time Alt. Az.
15 Dec 6.6 06:34:09 10° N 06:37:41 60° WNW 06:41:16 10° SSW visible
15 Dec 9.9 18:42:38 10° WSW 18:44:04 12° W 18:45:30 10° WNW visible
16 Dec 7.3 06:09:35 10° NNE 06:13:08 57° E 06:16:43 10° S visible
16 Dec 8.8 18:16:28 10° SSW 18:19:22 26° W 18:22:17 10° NW visible
17 Dec 9.0 05:45:27 10° NE 05:48:31 26° E 05:51:36 10° SSE visible
17 Dec 7.0 17:51:21 10° S 17:54:43 61° W 17:58:07 10° NNW visible
18 Dec 10.0 05:22:12 10° ENE 05:23:49 13° E 05:25:27 10° ESE visible
18 Dec 6.5 17:26:51 10° SSE 17:30:10 54° ENE 17:33:31 10° N visible
19 Dec 6.5 06:29:13 10° N 06:32:49 71° WNW 06:36:28 10° SSW visible
19 Dec 9.8 18:37:15 10° SW 18:39:08 14° W 18:41:01 10° WNW visible
20 Dec 7.6 06:04:43 10° NNE 06:08:15 49° E 06:11:49 10° S visible
20 Dec 8.5 18:11:23 10° SSW 18:14:24 30° W 18:17:29 10° NW visible
21 Dec 9.3 05:40:40 10° NE 05:43:37 23° E 05:46:33 10° SSE visible
21 Dec 6.7 17:46:24 10° S 17:49:47 73° W 17:53:13 10° NNW visible
22 Dec 10.2 05:17:49 10° ENE 05:18:53 11° E 05:19:57 10° ESE visible
22 Dec 6.7 17:21:58 10° SSE 17:25:14 45° ENE 17:28:32 10° N visible
23 Dec 6.6 06:24:15 10° N 06:27:55 84° WNW 06:31:37 10° SSW visible
23 Dec 9.7 18:31:55 10° SW 18:34:08 16° W 18:36:23 10° NW visible
24 Dec 8.0 05:59:49 10° NNE 06:03:19 42° E 06:06:51 10° S visible
24 Dec 8.2 18:06:17 10° SSW 18:09:26 35° W 18:12:38 10° NNW visible
